TimeCDT,TemperatureF,Dew PointF,Humidity,Sea Level PressureIn,VisibilityMPH,Wind Direction,Wind SpeedMPH,Gust SpeedMPH,PrecipitationIn,Events,Conditions,WindDirDegrees,DateUTC
12:15 AM,41.9,27.0,55,30.28,10.0,Calm,Calm,-,N/A,,Clear,0,2013-04-26 05:15:00
12:35 AM,41.4,27.3,57,30.28,10.0,Calm,Calm,-,N/A,,Clear,0,2013-04-26 05:35:00
12:55 AM,40.1,28.0,62,30.28,10.0,SSE,3.5,-,N/A,,Clear,150,2013-04-26 05:55:00
1:15 AM,37.8,29.5,72,30.28,10.0,SSE,5.8,-,N/A,,Clear,150,2013-04-26 06:15:00
1:35 AM,38.5,29.7,71,30.27,10.0,SSE,8.1,-,N/A,,Clear,150,2013-04-26 06:35:00
2:15 AM,39.2,30.6,71,30.26,10.0,SSE,8.1,-,N/A,,Clear,150,2013-04-26 07:15:00
2:35 AM,39.4,31.1,72,30.25,10.0,SSE,6.9,-,N/A,,Clear,150,2013-04-26 07:35:00
2:55 AM,39.4,31.1,72,30.24,10.0,SE,6.9,-,N/A,,Clear,140,2013-04-26 07:55:00
3:15 AM,40.5,31.6,71,30.24,10.0,SSE,6.9,-,N/A,,Clear,150,2013-04-26 08:15:00
3:35 AM,40.8,31.6,70,30.24,10.0,SSE,6.9,-,N/A,,Clear,150,2013-04-26 08:35:00
3:55 AM,39.6,32.0,74,30.24,10.0,SSE,8.1,-,N/A,,Clear,160,2013-04-26 08:55:00
4:15 AM,39.2,32.0,75,30.24,10.0,SSE,8.1,-,N/A,,Clear,160,2013-04-26 09:15:00
4:35 AM,40.5,32.0,72,30.25,10.0,SSE,6.9,-,N/A,,Clear,150,2013-04-26 09:35:00
4:55 AM,40.3,32.4,73,30.25,10.0,SSE,9.2,-,N/A,,Clear,150,2013-04-26 09:55:00
5:15 AM,41.2,32.9,72,30.25,10.0,SSE,8.1,-,N/A,,Scattered Clouds,150,2013-04-26 10:15:00
5:35 AM,41.2,33.1,73,30.25,10.0,SE,6.9,-,N/A,,Clear,140,2013-04-26 10:35:00
5:55 AM,42.3,33.8,72,30.25,10.0,SE,5.8,-,N/A,,Scattered Clouds,140,2013-04-26 10:55:00
6:15 AM,42.1,33.4,71,30.25,10.0,SE,4.6,-,N/A,,Scattered Clouds,140,2013-04-26 11:15:00
6:35 AM,41.2,33.8,75,30.25,10.0,SE,4.6,-,N/A,,Clear,130,2013-04-26 11:35:00
6:55 AM,43.3,34.7,72,30.24,10.0,SE,6.9,-,N/A,,Clear,130,2013-04-26 11:55:00
7:15 AM,45.9,34.9,66,30.24,10.0,SE,9.2,-,N/A,,Scattered Clouds,140,2013-04-26 12:15:00
7:35 AM,47.5,35.2,63,30.25,10.0,SSE,11.5,-,N/A,,Clear,150,2013-04-26 12:35:00
7:55 AM,48.9,35.8,61,30.24,10.0,SSE,11.5,-,N/A,,Clear,150,2013-04-26 12:55:00
8:15 AM,49.5,36.0,60,30.25,10.0,SSE,11.5,-,N/A,,Clear,150,2013-04-26 13:15:00
8:35 AM,50.5,36.1,58,30.24,10.0,SSE,11.5,-,N/A,,Clear,150,2013-04-26 13:35:00
8:55 AM,52.0,36.9,56,30.24,10.0,SSE,16.1,19.6,N/A,,Clear,160,2013-04-26 13:55:00
9:15 AM,53.4,37.6,55,30.24,10.0,SSE,16.1,20.7,N/A,,Clear,160,2013-04-26 14:15:00
9:35 AM,54.7,37.9,53,30.24,10.0,SSE,16.1,-,N/A,,Clear,160,2013-04-26 14:35:00
9:55 AM,56.8,39.2,52,30.24,10.0,South,13.8,18.4,N/A,,Clear,170,2013-04-26 14:55:00
10:15 AM,57.9,39.0,49,30.24,10.0,SSE,17.3,-,N/A,,Clear,160,2013-04-26 15:15:00
10:35 AM,59.7,39.9,48,30.24,10.0,South,20.7,24.2,N/A,,Clear,170,2013-04-26 15:35:00
10:55 AM,61.0,39.7,46,30.24,10.0,South,19.6,25.3,N/A,,Clear,180,2013-04-26 15:55:00
11:15 AM,62.6,40.6,45,30.24,10.0,South,17.3,23.0,N/A,,Clear,180,2013-04-26 16:15:00
11:35 AM,63.9,40.6,43,30.25,10.0,SSW,16.1,-,N/A,,Clear,200,2013-04-26 16:35:00
11:55 AM,64.4,41.0,42,30.24,10.0,SSW,19.6,-,N/A,,Clear,210,2013-04-26 16:55:00
12:15 PM,64.6,42.6,45,30.24,10.0,SSW,13.8,20.7,N/A,,Clear,200,2013-04-26 17:15:00
12:35 PM,66.6,43.7,44,30.23,10.0,SSW,11.5,-,N/A,,Clear,210,2013-04-26 17:35:00
12:55 PM,67.1,43.2,42,30.23,10.0,SSW,17.3,25.3,N/A,,Clear,200,2013-04-26 17:55:00
1:15 PM,66.6,43.9,44,30.22,10.0,SSW,19.6,23.0,N/A,,Clear,200,2013-04-26 18:15:00
1:35 PM,67.1,43.9,43,30.21,10.0,SSW,17.3,24.2,N/A,,Clear,200,2013-04-26 18:35:00
1:55 PM,67.8,44.4,43,30.21,10.0,SSW,19.6,25.3,N/A,,Clear,200,2013-04-26 18:55:00
2:15 PM,68.4,44.4,42,30.21,10.0,SSW,18.4,24.2,N/A,,Clear,200,2013-04-26 19:15:00
2:35 PM,66.6,44.2,44,30.20,10.0,SSW,15.0,24.2,N/A,,Clear,200,2013-04-26 19:35:00
2:55 PM,68.0,41.7,38,30.20,10.0,South,19.6,26.5,N/A,,Clear,190,2013-04-26 19:55:00
3:15 PM,66.6,41.5,40,30.20,10.0,SSW,19.6,26.5,N/A,,Clear,200,2013-04-26 20:15:00
3:35 PM,66.9,42.1,40,30.20,10.0,SSW,17.3,25.3,N/A,,Clear,210,2013-04-26 20:35:00
3:55 PM,66.7,42.3,41,30.19,10.0,SSW,18.4,24.2,N/A,,Clear,200,2013-04-26 20:55:00
4:15 PM,66.7,41.0,39,30.19,10.0,South,16.1,-,N/A,,Clear,190,2013-04-26 21:15:00
4:35 PM,66.2,41.9,41,30.19,10.0,SSW,19.6,23.0,N/A,,Clear,200,2013-04-26 21:35:00
4:55 PM,66.0,42.8,43,30.19,10.0,SSW,15.0,-,N/A,,Scattered Clouds,210,2013-04-26 21:55:00
5:15 PM,65.1,42.8,44,30.19,10.0,SSW,15.0,-,N/A,,Scattered Clouds,200,2013-04-26 22:15:00
5:35 PM,64.9,43.5,46,30.20,10.0,South,15.0,21.9,N/A,,Mostly Cloudy,190,2013-04-26 22:35:00
5:55 PM,63.9,44.2,49,30.20,10.0,South,17.3,20.7,N/A,,Overcast,190,2013-04-26 22:55:00
6:15 PM,63.3,43.3,48,30.21,10.0,South,16.1,-,N/A,,Overcast,190,2013-04-26 23:15:00
6:35 PM,62.6,42.8,48,30.21,10.0,South,13.8,-,N/A,,Overcast,180,2013-04-26 23:35:00
6:55 PM,62.1,43.2,50,30.21,10.0,South,12.7,-,N/A,,Mostly Cloudy,180,2013-04-26 23:55:00
7:15 PM,60.8,43.7,53,30.21,10.0,South,13.8,-,N/A,,Scattered Clouds,180,2013-04-27 00:15:00
7:35 PM,60.1,44.4,56,30.22,10.0,South,11.5,17.3,N/A,,Scattered Clouds,190,2013-04-27 00:35:00
7:55 PM,60.1,44.8,57,30.22,10.0,South,10.4,-,N/A,,Mostly Cloudy,180,2013-04-27 00:55:00
8:15 PM,59.7,44.8,58,30.22,10.0,South,12.7,-,N/A,,Overcast,180,2013-04-27 01:15:00
8:35 PM,59.4,45.0,59,30.23,10.0,South,11.5,-,N/A,,Overcast,180,2013-04-27 01:35:00
8:55 PM,59.0,45.5,61,30.24,10.0,South,8.1,-,N/A,,Overcast,190,2013-04-27 01:55:00
9:15 PM,58.3,45.9,63,30.24,10.0,South,6.9,-,N/A,,Overcast,190,2013-04-27 02:15:00
9:35 PM,57.7,45.5,64,30.26,10.0,South,8.1,-,N/A,,Overcast,190,2013-04-27 02:35:00
9:55 PM,57.7,45.1,63,30.26,10.0,South,9.2,-,N/A,,Overcast,190,2013-04-27 02:55:00
10:15 PM,57.6,45.3,64,30.26,10.0,South,6.9,-,N/A,,Overcast,180,2013-04-27 03:15:00
10:35 PM,55.4,46.2,71,30.26,10.0,SSE,10.4,-,N/A,,Overcast,160,2013-04-27 03:35:00
10:55 PM,54.1,45.7,73,30.25,10.0,SSE,10.4,-,N/A,,Scattered Clouds,160,2013-04-27 03:55:00
11:15 PM,53.2,45.5,75,30.25,10.0,SSE,10.4,-,N/A,,Clear,150,2013-04-27 04:15:00
11:35 PM,52.9,45.3,75,30.26,10.0,SSE,9.2,-,N/A,,Mostly Cloudy,160,2013-04-27 04:35:00
11:55 PM,52.7,45.1,75,30.26,10.0,South,8.1,-,N/A,,Overcast,170,2013-04-27 04:55:00